Tracking 29528 objects as of 12-Sep-2024
HD Live streaming from Space Station
objects crossing your sky now

ONEWEB-0098

Track ONEWEB-0098 now!
10-day predictions
ONEWEB-0098 is classified as:


NORAD ID: 45442
Int'l Code: 2020-020U
Perigee: 1,223.3 km
Apogee: 1,226.3 km
Inclination: 87.9 °
Period: 109.8 minutes
Semi major axis: 7595 km
RCS: Unknown
Launch date: March 21, 2020
Source: United Kingdom (UK)
Launch site: TYURATAM MISSILE AND SPACE COMPLEX (TTMTR)
Your satellite tracking list
Your tracking list is empty




NASA's NSSDC Master Catalog

Two Line Element Set (TLE):
1 45442U 20020U   24256.16329040  .00000530  00000-0  14598-2 0  9994
2 45442  87.8977 149.1221 0001949  80.3577 279.7771 13.11417672218363
Source of the keplerian elements: AFSPC